Weather History for Avalon, VC

Change the Weather History Date:

Saturday, June 15, 2013

  Actual Average (YMML) Record (YMML)
Temperature  
Mean Temperature 48 °F -  
Max Temperature 57 °F 54 °F 60 °F (2002)
Min Temperature 39 °F 41 °F 33 °F (2007)
Degree Days  
Heating Degree Days 17    
Moisture  
Dew Point 44 °F    
Average Humidity 84    
Maximum Humidity 94    
Minimum Humidity 52    
Precipitation  
Precipitation 0.01 in - - ()
Sea Level Pressure  
Sea Level Pressure 30.14 in    
Wind  
Wind Speed 6 mph ()    
Max Wind Speed 17 mph    
Max Gust Speed -    
Visibility 6.2 miles    
Events Rain    
Averages and records for this station are not official NWS values.
T = Trace of Precipitation, MM = Missing Value Source: Averaged Metar Reports

Daily Weather History Graph

Daily Weather History Graph

Search for Another Location

Airport:

Trip Planner

Search our weather history database for the weather conditions in past years. The results will help you decide how hot, cold, wet, or windy it might be!

Date:

Astronomy

Jun. 15, 2013 Rise Set
Actual Time 7:36 AM AEST 5:08 PM AEST
Civil Twilight 7:06 AM AEST 5:38 PM AEST
Nautical Twilight 6:33 AM AEST 6:11 PM AEST
Astronomical Twilight 6:01 AM AEST 6:43 PM AEST
Moon 11:23 AM AEST (6/15) 11:17 PM AEST (6/15)
Length of Visible Light 10h 31m
Length of Day
9h 32m
Waxing Crescent, 34% of the Moon is Illuminated
Jun 15
Waxing Crescent
Jun 17
First Quarter
Jun 23
Full
Jun 30
Last Quarter
Jul 8
New

Hourly Weather History & Observations

Time (AEST) Temp. Windchill Dew Point Humidity Pressure Visibility Wind Dir Wind Speed Gust Speed Precip Events Conditions
12:00 AM 44 °F - 41 °F 85% 30.09 in - WSW 4.6 mph - -  
12:00 AM 42.8 °F 40.1 °F 41.0 °F 93% 30.06 in 6.2 mi WSW 4.6 mph - N/A   Scattered Clouds
12:30 AM 42.8 °F 40.1 °F 41.0 °F 93% 30.06 in 6.2 mi WNW 4.6 mph - N/A   Scattered Clouds
1:00 AM 42.8 °F 40.1 °F 41.0 °F 93% 30.06 in 6.2 mi West 4.6 mph - N/A   Unknown
1:30 AM 42.8 °F 39.3 °F 41.0 °F 93% 30.06 in 6.2 mi West 5.8 mph - N/A   Unknown
2:00 AM 42.8 °F 40.1 °F 41.0 °F 93% 30.06 in 6.2 mi West 4.6 mph - N/A   Scattered Clouds
2:30 AM 42.8 °F 40.1 °F 41.0 °F 93% 30.06 in 6.2 mi WSW 4.6 mph - N/A   Mostly Cloudy
3:00 AM 41 °F - 39 °F 92% 30.09 in - SSW 3.5 mph - -  
3:00 AM 41.0 °F 39.0 °F 39.2 °F 93% 30.09 in 6.2 mi SSW 3.5 mph - N/A   Scattered Clouds
3:30 AM 41.0 °F 38.0 °F 39.2 °F 93% 30.09 in 6.2 mi WNW 4.6 mph - N/A   Scattered Clouds
4:00 AM 41.0 °F 36.4 °F 39.2 °F 93% 30.09 in 6.2 mi NW 6.9 mph - N/A   Scattered Clouds
4:30 AM 41.0 °F 37.1 °F 39.2 °F 93% 30.09 in 6.2 mi WNW 5.8 mph - N/A   Scattered Clouds
5:00 AM 39.2 °F 34.2 °F 37.4 °F 93% 30.06 in 6.2 mi WNW 6.9 mph - N/A   Mostly Cloudy
5:30 AM 42.8 °F 38.0 °F 41.0 °F 93% 30.09 in 6.2 mi WNW 8.1 mph - N/A   Mostly Cloudy
6:00 AM 42.8 °F 38.6 °F 41.0 °F 93% 30.09 in 6.2 mi West 6.9 mph - N/A   Overcast
6:30 AM 44.6 °F 40.7 °F 41.0 °F 87% 30.09 in 6.2 mi WNW 6.9 mph - N/A   Overcast
7:00 AM 44.6 °F 41.4 °F 42.8 °F 93% 30.09 in 6.2 mi NW 5.8 mph - N/A   Overcast
7:30 AM 44.6 °F 41.4 °F 42.8 °F 93% 30.12 in 6.2 mi WNW 5.8 mph - N/A   Overcast
8:00 AM 44.6 °F 40.7 °F 42.8 °F 93% 30.12 in 6.2 mi NW 6.9 mph - N/A   Overcast
8:30 AM 46.4 °F 42.4 °F 42.8 °F 87% 30.12 in 6.2 mi WNW 8.1 mph - N/A Rain Light Rain Showers
9:00 AM 47 °F - 44 °F 86% 30.15 in - WNW 8.1 mph - -   Overcast
9:00 AM 46.4 °F 42.4 °F 44.6 °F 93% 30.15 in 6.2 mi WNW 8.1 mph - N/A   Overcast
9:30 AM 48.2 °F - 44.6 °F 87% 30.15 in 6.2 mi WNW 8.1 mph - N/A   Overcast
10:00 AM 50.0 °F - 46.4 °F 87% 30.15 in 6.2 mi WNW 5.8 mph - N/A   Overcast
10:30 AM 51.8 °F - 48.2 °F 88% 30.18 in 6.2 mi West 6.9 mph - N/A   Mostly Cloudy
11:00 AM 53.6 °F - 46.4 °F 77% 30.18 in 6.2 mi West 5.8 mph - N/A   Overcast
11:30 AM 53.6 °F - 46.4 °F 77% 30.18 in 6.2 mi West 4.6 mph - N/A   Overcast
12:00 PM 53.6 °F - 46.4 °F 77% 30.15 in 6.2 mi West 5.8 mph - N/A Rain Light Rain Showers
12:30 PM 55.4 °F - 46.4 °F 72% 30.15 in 6.2 mi South 11.5 mph - N/A Rain Light Rain Showers
1:00 PM 55.4 °F - 46.4 °F 72% 30.15 in 6.2 mi SSE 8.1 mph - N/A   Overcast
1:30 PM 55.4 °F - 44.6 °F 67% 30.15 in 6.2 mi South 16.1 mph - N/A   Mostly Cloudy
2:00 PM 57.2 °F - 44.6 °F 63% 30.15 in 6.2 mi South 17.3 mph - N/A   Mostly Cloudy
2:30 PM 55.4 °F - 44.6 °F 67% 30.15 in 6.2 mi South 12.7 mph - N/A   Mostly Cloudy
3:00 PM 57 °F - 44 °F 52% 30.16 in - South 16.1 mph - -  
3:00 PM 57.2 °F - 44.6 °F 63% 30.15 in 6.2 mi South 16.1 mph - N/A   Unknown
3:30 PM 55.4 °F - 44.6 °F 67% 30.15 in 6.2 mi South 17.3 mph - N/A   Unknown
4:00 PM 55.4 °F - 44.6 °F 67% 30.15 in 6.2 mi SSW 13.8 mph - N/A   Unknown
4:30 PM 53.6 °F - 42.8 °F 67% 30.15 in 6.2 mi South 11.5 mph - N/A   Scattered Clouds
5:00 PM 53.6 °F - 44.6 °F 72% 30.15 in 6.2 mi South 10.4 mph - N/A   Overcast
5:30 PM 53.6 °F - 44.6 °F 72% 30.15 in 6.2 mi South 10.4 mph - N/A   Overcast
6:00 PM 53 °F - 45 °F 67% 30.18 in - South 8.1 mph - -   Overcast
6:00 PM 51.8 °F - 44.6 °F 76% 30.18 in 6.2 mi South 8.1 mph - N/A   Overcast
6:30 PM 51.8 °F - 48.2 °F 88% 30.18 in 6.2 mi SE 12.7 mph - N/A   Overcast
7:00 PM 51.8 °F - 46.4 °F 82% 30.18 in 6.2 mi SE 10.4 mph - N/A   Overcast
7:30 PM 50.0 °F - 46.4 °F 87% 30.18 in 6.2 mi East 11.5 mph - N/A Rain Light Rain Showers
8:00 PM 50.0 °F - 48.2 °F 94% 30.18 in 6.2 mi SSE 6.9 mph - N/A Rain Light Rain Showers
8:30 PM 48.2 °F - 46.4 °F 93% 30.18 in 6.2 mi SSE 5.8 mph - N/A   Mostly Cloudy
9:00 PM 49 °F - 47 °F 89% 30.20 in - ESE 4.6 mph - -  
9:00 PM 48.2 °F - 46.4 °F 93% 30.18 in 6.2 mi ESE 4.6 mph - N/A   Mostly Cloudy
9:30 PM 48.2 °F - 46.4 °F 93% 30.18 in 6.2 mi Calm Calm - N/A   Mostly Cloudy
10:00 PM 48.2 °F - 46.4 °F 93% 30.18 in 6.2 mi NW 3.5 mph - N/A   Overcast
10:30 PM 48.2 °F - 46.4 °F 93% 30.18 in 6.2 mi WNW 4.6 mph - N/A   Overcast
11:00 PM 48.2 °F - 46.4 °F 93% 30.18 in 6.2 mi West 5.8 mph - N/A   Mostly Cloudy
11:30 PM 46.4 °F 42.9 °F 44.6 °F 93% 30.18 in 6.2 mi West 6.9 mph - N/A   Mostly Cloudy